Weather History for KBVU - February, 2013

Change the Weather History Date:

Friday, February 15, 2013

  Actual Average (KLAS) Record (KLAS)
Temperature  
Mean Temperature 55 °F 53 °F  
Max Temperature 66 °F 62 °F 79 °F (2015)
Min Temperature 44 °F 43 °F 22 °F (1949)
Degree Days  
Heating Degree Days 10 12  
Month to date heating degree days 203  
Since 1 July heating degree days 1555  
Cooling Degree Days 0 0  
Month to date cooling degree days 0  
Year to date cooling degree days 0  
Growing Degree Days 5 (Base 50)    
Moisture  
Dew Point 20 °F    
Average Humidity 28    
Maximum Humidity 40    
Minimum Humidity 14    
Precipitation  
Precipitation 0.00 in 0.03 in 0.35 in (1973)
Month to date precipitation 0.36  
Year to date precipitation 0.90  
Snow  
Snow 0.00 in 0.00 in T in (1975)
Month to date snowfall 0.0  
Since 1 July snowfall 0.2  
Snow Depth -    
Sea Level Pressure  
Sea Level Pressure 30.35 in    
Wind  
Wind Speed 7 mph (NNE)    
Max Wind Speed 15 mph    
Max Gust Speed 22 mph    
Visibility 10 miles    
Events      
T = Trace of Precipitation, MM = Missing Value Source: NWS Daily Summary

Daily Weather History Graph

Daily Weather History Graph

Search for Another Location

Airport or City:

Trip Planner

Search our weather history database for the weather conditions in past years. The results will help you decide how hot, cold, wet, or windy it might be!

Date:

Astronomy

Feb. 15, 2013 Rise Set
Actual Time 6:26 AM PST 5:21 PM PST
Civil Twilight 6:00 AM PST 5:47 PM PST
Nautical Twilight 5:30 AM PST 6:17 PM PST
Astronomical Twilight 5:00 AM PST 6:47 PM PST
Moon 9:17 AM PST (2/15) 11:12 PM PST (2/15)
Length of Visible Light 11h 47m
Length of Day
10h 55m
Waxing Crescent, 31% of the Moon is Illuminated
Feb 15
Waxing Crescent
Feb 17
First Quarter
Feb 25
Full
Mar 4
Last Quarter
Mar 11
New

Hourly Weather History & Observations

Time (PST) Temp. Windchill Dew Point Humidity Pressure Visibility Wind Dir Wind Speed Gust Speed Precip Events Conditions
12:15 AM 50.0 °F - 21.2 °F 32% 30.32 in 10.0 mi ENE 8.1 mph - N/A   Unknown
12:35 AM 50.0 °F - 23.0 °F 35% 30.32 in 10.0 mi NNE 8.1 mph - N/A   Unknown
12:55 AM 50.0 °F - 21.2 °F 32% 30.32 in 10.0 mi North 9.2 mph - N/A   Unknown
1:15 AM 46.4 °F - 23.0 °F 40% 30.32 in 10.0 mi Calm Calm - N/A   Unknown
1:35 AM 48.2 °F - 23.0 °F 37% 30.32 in 10.0 mi North 6.9 mph - N/A   Unknown
1:55 AM 46.4 °F 43.5 °F 23.0 °F 40% 30.32 in 10.0 mi East 5.8 mph - N/A   Unknown
2:15 AM 48.2 °F - 23.0 °F 37% 30.32 in 10.0 mi NE 8.1 mph - N/A   Unknown
2:35 AM 50.0 °F - 23.0 °F 35% 30.32 in 10.0 mi NNE 6.9 mph - N/A   Unknown
2:55 AM 48.2 °F - 23.0 °F 37% 30.32 in 10.0 mi NNW 3.5 mph - N/A   Unknown
3:15 AM 48.2 °F - 23.0 °F 37% 30.32 in 10.0 mi NE 5.8 mph - N/A   Unknown
3:35 AM 46.4 °F - 21.2 °F 37% 30.32 in 10.0 mi Calm Calm - N/A   Unknown
4:15 AM 46.4 °F - 23.0 °F 40% 30.33 in 10.0 mi Calm Calm - N/A   Unknown
4:35 AM 46.4 °F 42.9 °F 21.2 °F 37% 30.34 in 10.0 mi NNE 6.9 mph - N/A   Unknown
4:55 AM 48.2 °F - 19.4 °F 32% 30.34 in 10.0 mi North 9.2 mph - N/A   Unknown
5:15 AM 46.4 °F 41.5 °F 21.2 °F 37% 30.34 in 10.0 mi North 10.4 mph - N/A   Unknown
5:35 AM 46.4 °F 41.9 °F 19.4 °F 34% 30.35 in 10.0 mi NNE 9.2 mph - N/A   Unknown
5:55 AM 48.2 °F - 19.4 °F 32% 30.35 in 10.0 mi NE 9.2 mph - N/A   Unknown
6:15 AM 48.2 °F - 19.4 °F 32% 30.36 in 10.0 mi North 8.1 mph - N/A   Unknown
6:35 AM 48.2 °F - 19.4 °F 32% 30.36 in 10.0 mi NNW 11.5 mph - N/A   Unknown
6:55 AM 46.4 °F 42.4 °F 21.2 °F 37% 30.37 in 10.0 mi NNW 8.1 mph - N/A   Unknown
7:15 AM 50.0 °F - 19.4 °F 30% 30.38 in 10.0 mi NNW 10.4 mph - N/A   Unknown
7:35 AM 51.8 °F - 19.4 °F 28% 30.39 in 10.0 mi NNW 10.4 mph - N/A   Unknown
7:55 AM 51.8 °F - 19.4 °F 28% 30.40 in 10.0 mi North 8.1 mph - N/A   Unknown
8:15 AM 53.6 °F - 19.4 °F 26% 30.41 in 10.0 mi NNE 9.2 mph 18.4 mph N/A   Unknown
8:35 AM 53.6 °F - 19.4 °F 26% 30.41 in 10.0 mi NNE 9.2 mph - N/A   Unknown
8:55 AM 55.4 °F - 19.4 °F 25% 30.41 in 10.0 mi North 13.8 mph 18.4 mph N/A   Unknown
9:15 AM 55.4 °F - 19.4 °F 25% 30.41 in 10.0 mi North 10.4 mph 21.9 mph N/A   Unknown
9:35 AM 55.4 °F - 19.4 °F 25% 30.41 in 10.0 mi North 12.7 mph 18.4 mph N/A   Unknown
9:55 AM 57.2 °F - 19.4 °F 23% 30.41 in 10.0 mi North 13.8 mph 19.6 mph N/A   Unknown
10:15 AM 57.2 °F - 19.4 °F 23% 30.41 in 10.0 mi NE 9.2 mph - N/A   Unknown
10:55 AM 59.0 °F - 17.6 °F 20% 30.40 in 10.0 mi North 13.8 mph 20.7 mph N/A   Unknown
11:15 AM 59.0 °F - 17.6 °F 20% 30.40 in 10.0 mi NNE 12.7 mph 18.4 mph N/A   Unknown
11:35 AM 59.0 °F - 17.6 °F 20% 30.39 in 10.0 mi NNE 11.5 mph 16.1 mph N/A   Unknown
11:55 AM 59.0 °F - 17.6 °F 20% 30.38 in 10.0 mi Calm Calm - N/A   Unknown
12:15 PM 62.6 °F - 17.6 °F 18% 30.37 in 10.0 mi NNE 12.7 mph 16.1 mph N/A   Unknown
12:35 PM 62.6 °F - 17.6 °F 18% 30.36 in 10.0 mi NNW 11.5 mph - N/A   Unknown
12:55 PM 62.6 °F - 17.6 °F 18% 30.36 in 10.0 mi NE 9.2 mph - N/A   Unknown
1:15 PM 62.6 °F - 17.6 °F 18% 30.35 in 10.0 mi NE 6.9 mph - N/A   Unknown
1:35 PM 64.4 °F - 17.6 °F 16% 30.35 in 10.0 mi NNE 9.2 mph 17.3 mph N/A   Unknown
1:55 PM 64.4 °F - 17.6 °F 16% 30.34 in 10.0 mi NNE 12.7 mph - N/A   Unknown
2:15 PM 64.4 °F - 17.6 °F 16% 30.34 in 10.0 mi NE 8.1 mph - N/A   Unknown
2:35 PM 64.4 °F - 17.6 °F 16% 30.33 in 10.0 mi North 9.2 mph - N/A   Unknown
2:55 PM 66.2 °F - 17.6 °F 15% 30.32 in 10.0 mi North 15.0 mph 20.7 mph N/A   Unknown
3:15 PM 66.2 °F - 15.8 °F 14% 30.32 in 10.0 mi North 10.4 mph 19.6 mph N/A   Unknown
3:35 PM 66.2 °F - 15.8 °F 14% 30.32 in 10.0 mi North 15.0 mph - N/A   Unknown
3:55 PM 64.4 °F - 15.8 °F 15% 30.32 in 10.0 mi North 12.7 mph - N/A   Unknown
4:15 PM 64.4 °F - 17.6 °F 16% 30.31 in 10.0 mi North 6.9 mph - N/A   Unknown
4:35 PM 64.4 °F - 17.6 °F 16% 30.31 in 10.0 mi NNE 6.9 mph - N/A   Unknown
4:55 PM 64.4 °F - 17.6 °F 16% 30.31 in 10.0 mi NNE 5.8 mph - N/A   Unknown
5:15 PM 60.8 °F - 19.4 °F 20% 30.32 in 10.0 mi Calm Calm - N/A   Unknown
5:35 PM 55.4 °F - 19.4 °F 25% 30.32 in 10.0 mi NE 4.6 mph - N/A   Unknown
5:55 PM 55.4 °F - 19.4 °F 25% 30.32 in 10.0 mi Calm Calm - N/A   Unknown
6:15 PM 53.6 °F - 19.4 °F 26% 30.32 in 10.0 mi Calm Calm - N/A   Unknown
6:35 PM 51.8 °F - 24.8 °F 35% 30.32 in 10.0 mi Calm Calm - N/A   Unknown
6:55 PM 50.0 °F - 24.8 °F 37% 30.33 in 10.0 mi Calm Calm - N/A   Unknown
7:15 PM 50.0 °F - 23.0 °F 35% 30.33 in 10.0 mi Calm Calm - N/A   Unknown
7:35 PM 51.8 °F - 19.4 °F 28% 30.34 in 10.0 mi North 6.9 mph - N/A   Unknown
7:55 PM 51.8 °F - 19.4 °F 28% 30.34 in 10.0 mi Calm Calm - N/A   Unknown
8:15 PM 50.0 °F - 19.4 °F 30% 30.35 in 10.0 mi North 6.9 mph - N/A   Unknown
8:35 PM 50.0 °F - 19.4 °F 30% 30.35 in 10.0 mi North 8.1 mph - N/A   Unknown
8:55 PM 51.8 °F - 19.4 °F 28% 30.36 in 10.0 mi Calm Calm - N/A   Unknown
9:15 PM 46.4 °F - 21.2 °F 37% 30.37 in 10.0 mi Calm Calm - N/A   Unknown
9:35 PM 48.2 °F - 19.4 °F 32% 30.37 in 10.0 mi Calm Calm - N/A   Unknown
9:55 PM 44.6 °F - 21.2 °F 39% 30.36 in 10.0 mi Calm Calm - N/A   Unknown
10:15 PM 48.2 °F - 21.2 °F 34% 30.36 in 10.0 mi North 8.1 mph - N/A   Unknown
10:55 PM 48.2 °F - 19.4 °F 32% 30.37 in 10.0 mi Calm Calm - N/A   Unknown
11:15 PM 48.2 °F - 19.4 °F 32% 30.36 in 10.0 mi NNW 6.9 mph - N/A   Unknown
11:35 PM 48.2 °F - 19.4 °F 32% 30.36 in 10.0 mi NNW 9.2 mph - N/A   Unknown
11:55 PM 46.4 °F 42.9 °F 21.2 °F 37% 30.36 in 10.0 mi NNW 6.9 mph - N/A   Unknown